www.pogodaiklimat.ru

Погода и климат >> Архив погоды >> Россия >> Свердловская область >> Бутка


ПОГОДА в Бутке

  • Прогноз погоды в Бутке
  • Монитор погоды в Бутке

АРХИВ ПОГОДЫ в Бутке

Время (UTC), дата Ветер
(напр.,м/с)
 
Видим.   Явления Облачность Т
(С)
Тd
(С)
f
(%)
Тe
(С)
Тes
(С)
Комфортность P
(гПа)
Po
(гПа)
Тmin
(С)
Tmax
(С)
R
(мм)
R24
(мм)
S
(см)
09 13.04 СЗ 1 50 км 9/3 600 м
[Cu hum Ac lent]
+5.8 -4.9 46 +5 +8 1018.7 1005.6
12 13.04 СЗ 2 50 км 9/0
[Ac lent Cc]
+8.0 -5.1 39 +7 +8 1018.4 1005.4
15 13.04 Ю 2 50 км 9/6 600 м
[Sc Ac trans]
+4.1 -2.3 63 +2 +2 1019.0 1005.9 +8.0
18 13.04 штиль 0 н/о н/о +1.5 -2.7 74 +1 +1 1019.5 1006.2
21 13.04 СВ 3 н/о н/о +2.9 -7.4 47 -0 -0 1020.8 1007.5
00 14.04 СВ 4
{10}
н/о н/о +0.5 -7.5 55 -4 -4 1022.8 1009.4
03 14.04 СВ 4
{10}
50 км 9/0
[As op]
-0.7 -10.4 48 -6 -5 1024.3 1010.8 -0.9
06 14.04 СВ 6
{11}
50 км 9/0
[Ac lent]
+0.6 -12.2 38 -5 -4 1025.4 1011.9
09 14.04 СВ 5
{11}
50 км 5/0
[Ci sp]
+3.3 -12.4 31 -1 +4 1025.2 1011.9
12 14.04 СВ 5
{14}
50 км 1/0
[Ci]
+3.1 -14.6 26 -1 +1 1025.0 1011.7
15 14.04 СВ 3 50 км 1/0
[Cc]
-0.5 -15.6 31 -4 -4 1025.4 1011.9 +4.0
18 14.04 С 2 н/о н/о -4.8 -15.4 43 -8 -8 1025.9 1012.2
21 14.04 С 1 н/о н/о -7.7 -13.6 63 -10 -10 1025.3 1011.4
00 15.04 С 1 н/о н/о -10.8 -13.3 82 -13 -13 1024.9 1010.9
03 15.04 СВ 1 50 км ясно -4.2 -11.4 57 -6 -3 1023.7 1010.0 -11.1
06 15.04 СЗ 2 50 км ясно +0.3 -15.0 31 -2 +7 1021.5 1008.1
09 15.04 З 4 50 км ясно +3.5 -15.1 24 0 +7 1018.6 1005.4
12 15.04 ЮЗ 4 50 км ясно +4.8 -13.9 24 +2 +4 1015.6 1002.5
15 15.04 ЮЗ 3 50 км 3/0
[Cc]
+0.9 -11.8 38 -3 -3 1013.3 1000.0 +4.9
18 15.04 ЮЗ 4 н/о н/о -1.0 -11.8 44 -6 -6 1011.5 998.2
21 15.04 ЮЗ 3 н/о н/о -1.9 -11.8 47 -6 -6 1010.0 996.6
00 16.04 ЮЗ 3 н/о н/о -0.8 -8.9 54 -5 -5 1008.1 994.9
03 16.04 З 4 50 км 10/0
[Ac As]
+1.6 -5.4 60 -3 -2 1006.3 993.2 -2.6
06 16.04 З 4
{10}
50 км в посл. час ливневой дождь 10/10 600 м
[Cb cap]
+3.9 -1.3 69 -0 -0 1004.9 991.9
09 16.04 С 3
{11}
400 м ливневой снег 10/10 600 м
[Cb cap]
-0.5 -1.7 92 -5 -5 1005.5 992.3
12 16.04 СЗ 3 50 км {ливн. осадки} 10/10 600 м
[Cb cap]
+1.0 -1.1 86 -3 -3 1005.4 992.3
15 16.04 С 3 6000 м слаб. снег 10/0
[As op]
-0.6 -2.7 86 -5 -5 1007.0 993.8 +4.3 3
18 16.04 С 6-10
{12}
н/о н/о -1.6 -10.6 50 -8 -8 1009.1 995.8
21 16.04 С 7-10
{11}
н/о н/о -3.9 -12.9 50 -11 -11 1012.1 998.6
00 17.04 С 6-10
{13}
н/о н/о -7.0 -16.7 46 -15 -15 1015.3 1001.6
03 17.04 С 8-11
{12}
50 км 9/5 600 м
[Cb cap Ac trans]
-8.9 -15.8 57 -18 -18 1017.2 1003.4 -9.0 0.0 1
06 17.04 С 8-12
{13}
50 км в посл. час ливневой снег 10/10 600 м
[Cb cap]
-8.3 -15.1 58 -17 -17 1019.4 1005.6 -9.3
09 17.04 С 8-13
{15}
50 км в посл. час ливневой снег 9/9 600 м
[Cb calv]
-6.0 -12.6 60 -15 -14 1021.2 1007.5
12 17.04 С 6-13
{15}
50 км {ливн. осадки} 9/9 600 м
[Cb calv]
-3.1 -14.8 40 -10 -10 1022.7 1009.1
15 17.04 С 5-10
{13}
50 км ясно -4.2 -16.6 37 -10 -10 1024.5 1010.8 -2.5
18 17.04 СЗ 3
{11}
н/о н/о -6.5 -15.7 48 -12 -12 1026.3 1012.5
21 17.04 Ю 1 н/о н/о -10.6 -15.6 67 -13 -13 1027.4 1013.4
00 18.04 Ю 2 н/о н/о -13.0 -16.0 78 -18 -18 1028.3 1014.2
03 18.04 СЗ 4 50 км 1/0
[Ci fib]
-4.2 -14.9 43 -10 -8 1028.0 1014.3 -13.0 1
06 18.04 З 5 50 км 5/0
[Ci fib]
+0.8 -15.3 29 -4 +1 1027.6 1014.2
09 18.04 СЗ 5
{10}
50 км ясно +2.9 -13.8 28 -1 +4 1027.7 1014.3
12 18.04 З 5
{11}
50 км ясно +4.4 -13.3 26 +1 +3 1027.2 1013.9
15 18.04 ЮЗ 3 50 км 1/0
[Ci fib]
+0.5 -12.9 36 -3 -3 1026.9 1013.4 +4.5
21 18.04 Ю 2 н/о н/о -6.2 -11.4 67 -10 -10 1026.8 1013.0
00 19.04 ЮЗ 1 н/о н/о -9.6 -12.7 78 -12 -12 1025.9 1011.9
03 19.04 В 1 50 км ясно +0.2 -8.0 54 -1 +2 1024.7 1011.2 -9.8
06 19.04 З 4 50 км ясно +6.0 -14.5 21 +3 +10 1023.0 1009.8
09 19.04 СЗ 3 50 км ясно +7.3 -13.5 21 +5 +14 опасность
простуды
1021.1 1008.0
12 19.04 С 4 50 км ясно +8.3 -13.5 20 +6 +9 1019.7 1006.7
15 19.04 штиль 0 50 км 3/0
[Ac lent]
+4.5 -11.5 30 +5 +5 1019.2 1006.0 +8.7
18 19.04 С 1 н/о н/о -1.8 -7.6 65 -4 -4 1019.5 1006.0
21 19.04 Ю 1 н/о н/о -1.5 -6.1 71 -3 -3 1019.6 1006.1
00 20.04 С 1 н/о н/о -0.9 -7.0 63 -3 -3 1019.2 1005.8
03 20.04 СЗ 4 50 км 10/10 600 м
[Sc]
+1.9 -6.0 56 -3 -3 1019.2 1005.9 -3.8
06 20.04 СЗ 3 50 км 10/10 600 м
[Sc]
+3.9 -4.9 53 +1 +1 1019.6 1006.4

 

Местоположение метеостанции Бутка (Свердловская область, Россия): широта 56.72 долгота 63.77 высота над уровнем моря 106 м.

В архиве по умолчанию представлена погода в Бутке за последнюю неделю. Архивные данные за месяц целиком и за предыдущие месяцы, начиная с января 2011 года, Вы можете получить, выбрав интересующий диапазон дат из раскрывающегося списка и нажав кнопку "Ввод!".


*Определитесь, кто Вы:
робот инопланетянин человек

Внимание! Время в таблицах - всемирное. Для получения местного времени необходимо прибавить поправку, которая равна 5 ч.

Смотрите также архив погоды в соседних городах и на ближайших метеорологических станциях:

Погода в Шатрово (Курганская область, Россия) (58 км)
Погода в Камышлове (Свердловская область, Россия) (66 км)
Погода в Тугулыме (Свердловская область, Россия) (67 км)
Погода в Далматово (Курганская область, Россия) (72 км)
Погода в Шадринске (Курганская область, Россия) (73 км)
Погода в Исетском (Тюменская область, Россия) (99 км)
Погода в Тюмени (Тюменская область, Россия) (110 км)
Погода в Ирбите (Свердловская область, Россия) (111 км)
Погода в Каменск-Уральском (Свердловская область, Россия) (121 км)
Погода в Артемовском (Свердловская область, Россия) (133 км)

Пояснения к столбцам:

Ветер - указаны скорость ветра в м/с - средняя за 10 мин, порывы в срок и между сроками (в фигурных скобках) и направление, откуда дует ветер: С - северный, СВ - северо-восточный, В - восточный, ЮВ - юго-восточный, Ю - южный, ЮЗ - юго-западный, З - западный, СЗ - северо-западный.
Видимость - горизонтальная дальность видимости в метрах или километрах. При видимости от 1 до 10 км при отсутствии осадков обычно наблюдается дымка, при ухудшении видимости до 1 км и менее - туман. В сухую погоду видимость может ухудшаться дымом, пылью или мглою.
Явления - указаны атмосферные явления, наблюдавшиеся в срок или в последний час перед сроком; фигурными скобками обозначены явления, наблюдавшиеся между сроками (за 1-3 часа до срока); квадратными скобками обозначены град или гололедные отложения с указанием их диаметра в мм.
Облачность - указаны через наклонную черту общая и нижняя облачность в баллах и высота нижней границы облаков в метрах; квадратными скобками обозначены формы облаков: Ci - перистые, Cs - перисто-слоистые, Cc - перисто-кучевые, Ac - высококучевые, As - высокослоистые, Sc - слоисто-кучевые, Ns - слоисто-дождевые, Cu - кучевые, Cb - кучево-дождевые. Подробнее классификацию облаков см. в Атласе облаков (PDF).
T - Температура воздуха - температура, измеренная на высоте 2 м над землей.
Td - Температура точки росы - температура, при понижении до которой содержащийся в воздухе водяной пар достигнет насыщения.
f - Относительная влажность воздуха - влажноcть воздуха, измеренная на высоте 2 м над землей.
Te - Эффективная температура - температура, которую ощущает одетый по сезону человек в тени. Характеристика душности погоды. При расчете учитывается влияние влажности воздуха и скорости ветра на теплоощущения человека.
Tes - Эффективная температура на солнце - температура, которую ощущает человек, с поправкой на солнечный нагрев. Характеристика знойности погоды. Зависит от высоты солнца над горизонтом, облачности и скорости ветра. Ночью, в пасмурную погоду, а также при ветре 12 м/с и более поправка равна нулю.
P - Атмосферное давление - приведенное к уровню моря атмосферное давление.
Po - Атмосферное давление - измеренное на уровне метеостанции атмосферное давление.
Tmin - Минимальная температура - минимум температуры воздуха на высоте 2 м над землей.
Tmax - Максимальная температура - максимум температуры воздуха на высоте 2 м над землей.
R - Количество осадков - Количество выпавших осадков за период времени, мм. При наведении курсора мыши на число - период времени, за который выпало указанное количество осадков.
R24 - Количество осадков - Количество выпавших осадков за 24 часа, мм.
S - Снежный покров - Высота снежного покрова, см. При наведении курсора мыши на число - состояние снежного покрова и степень покрытия местности в баллах.